Terminal Aerodrome Forecast
Issued by NWS

Home | Current Version | Previous Version | Text Only | Print | Product List | Glossary On
Versions: 1 2 3 4 5 6 7 8 9 10 11 12 13 14 15 16 17 18 19 20 21 22 23 24 25 26 27 28 29 30 31 32 33 34 35 36 37 38 39 40 41 42 43 44 45 46 47 48 49 50
000
FTUS46 KEKA 261200 CCA
TAFACV
TAF COR
KACV 261201Z 2612/2712 00000KT P6SM OVC006
     FM261500 VRB03KT P6SM OVC005
     FM261900 30008KT P6SM FEW250
     FM270500 VRB03KT 6SM BR SCT005=

USA.gov is the U.S. government's official web portal to all federal, state and local government web resources and services.